Year,Month,Day,Hour,Minute,Value (Times are PST for temperature in C)
2019,11,05,00,00,6.70
2019,11,05,00,01,6.60
2019,11,05,00,02,6.60
2019,11,05,00,03,6.60
2019,11,05,00,04,6.60
2019,11,05,00,05,6.60
2019,11,05,00,06,6.60
2019,11,05,00,07,6.60
2019,11,05,00,08,6.60
2019,11,05,00,09,6.60
2019,11,05,00,10,6.60
2019,11,05,00,11,6.50
2019,11,05,00,12,6.50
2019,11,05,00,13,6.50
2019,11,05,00,14,6.50
2019,11,05,00,15,6.50
2019,11,05,00,16,6.50
2019,11,05,00,17,6.50
2019,11,05,00,18,6.40
2019,11,05,00,19,6.40
2019,11,05,00,20,6.40
2019,11,05,00,21,6.40
2019,11,05,00,22,6.40
2019,11,05,00,23,6.40
2019,11,05,00,24,6.40
2019,11,05,00,25,6.40
2019,11,05,00,26,6.40
2019,11,05,00,27,6.40
2019,11,05,00,28,6.40
2019,11,05,00,29,6.40
2019,11,05,00,30,6.40
2019,11,05,00,31,6.40
2019,11,05,00,32,6.30
2019,11,05,00,33,6.30
2019,11,05,00,34,6.30
2019,11,05,00,35,6.30
2019,11,05,00,36,6.30
2019,11,05,00,37,6.30
2019,11,05,00,38,6.30
2019,11,05,00,39,6.20
2019,11,05,00,40,6.20
2019,11,05,00,41,6.20
2019,11,05,00,42,6.20
2019,11,05,00,43,6.20
2019,11,05,00,44,6.20
2019,11,05,00,45,6.20
2019,11,05,00,46,6.20
2019,11,05,00,47,6.20
2019,11,05,00,48,6.20
2019,11,05,00,49,6.20
2019,11,05,00,50,6.20
2019,11,05,00,51,6.20
2019,11,05,00,52,6.20
2019,11,05,00,53,6.20
2019,11,05,00,54,6.20
2019,11,05,00,55,6.20
2019,11,05,00,56,6.20
2019,11,05,00,57,6.10
2019,11,05,00,58,6.10
2019,11,05,00,59,6.10
2019,11,05,01,00,6.10
2019,11,05,01,01,6.10
2019,11,05,01,02,6.10
2019,11,05,01,03,6.10
2019,11,05,01,04,6.00
2019,11,05,01,05,6.00
2019,11,05,01,06,5.90
2019,11,05,01,07,5.90
2019,11,05,01,08,5.90
2019,11,05,01,09,5.90
2019,11,05,01,10,5.90
2019,11,05,01,11,5.80
2019,11,05,01,12,5.80
2019,11,05,01,13,5.80
2019,11,05,01,14,5.80
2019,11,05,01,15,5.70
2019,11,05,01,16,5.70
2019,11,05,01,17,5.70
2019,11,05,01,18,5.70
2019,11,05,01,19,5.70
2019,11,05,01,20,5.70
2019,11,05,01,21,5.70
2019,11,05,01,22,5.70
2019,11,05,01,23,5.70
2019,11,05,01,24,5.70
2019,11,05,01,25,5.70
2019,11,05,01,26,5.70
2019,11,05,01,27,5.70
2019,11,05,01,28,5.70
2019,11,05,01,29,5.70
2019,11,05,01,30,5.70
2019,11,05,01,31,5.70
2019,11,05,01,32,5.70
2019,11,05,01,33,5.70
2019,11,05,01,34,5.70
2019,11,05,01,35,5.70
2019,11,05,01,36,5.70
2019,11,05,01,37,5.70
2019,11,05,01,38,5.70
2019,11,05,01,39,5.70
2019,11,05,01,40,5.70
2019,11,05,01,41,5.70
2019,11,05,01,42,5.70
2019,11,05,01,43,5.70
2019,11,05,01,44,5.70
2019,11,05,01,45,5.70
2019,11,05,01,46,5.70
2019,11,05,01,47,5.60
2019,11,05,01,48,5.60
2019,11,05,01,49,5.60
2019,11,05,01,50,5.60
2019,11,05,01,51,5.60
2019,11,05,01,52,5.60
2019,11,05,01,53,5.60
2019,11,05,01,54,5.60
2019,11,05,01,55,5.60
2019,11,05,01,56,5.60
2019,11,05,01,57,5.50
2019,11,05,01,58,5.50
2019,11,05,01,59,5.50
2019,11,05,02,00,5.50
2019,11,05,02,01,5.50
2019,11,05,02,02,5.50
2019,11,05,02,03,5.40
2019,11,05,02,04,5.40
2019,11,05,02,05,5.40
2019,11,05,02,06,5.40
2019,11,05,02,07,5.40
2019,11,05,02,08,5.30
2019,11,05,02,09,5.30
2019,11,05,02,10,5.30
2019,11,05,02,11,5.30
2019,11,05,02,12,5.30
2019,11,05,02,13,5.30
2019,11,05,02,14,5.30
2019,11,05,02,15,5.30
2019,11,05,02,16,5.30
2019,11,05,02,17,5.30
2019,11,05,02,18,5.30
2019,11,05,02,19,5.30
2019,11,05,02,20,5.30
2019,11,05,02,21,5.30
2019,11,05,02,22,5.30
2019,11,05,02,23,5.30
2019,11,05,02,24,5.30
2019,11,05,02,25,5.30
2019,11,05,02,26,5.30
2019,11,05,02,27,5.30
2019,11,05,02,28,5.20
2019,11,05,02,29,5.20
2019,11,05,02,30,5.20
2019,11,05,02,31,5.20
2019,11,05,02,32,5.20
2019,11,05,02,33,5.20
2019,11,05,02,34,5.20
2019,11,05,02,35,5.20
2019,11,05,02,36,5.20
2019,11,05,02,37,5.20
2019,11,05,02,38,5.20
2019,11,05,02,39,5.20
2019,11,05,02,40,5.20
2019,11,05,02,41,5.20
2019,11,05,02,42,5.20
2019,11,05,02,43,5.20
2019,11,05,02,44,5.20
2019,11,05,02,45,5.20
2019,11,05,02,46,5.20
2019,11,05,02,47,5.20
2019,11,05,02,48,5.20
2019,11,05,02,49,5.20
2019,11,05,02,50,5.20
2019,11,05,02,51,5.20
2019,11,05,02,52,5.20
2019,11,05,02,53,5.20
2019,11,05,02,54,5.20
2019,11,05,02,55,5.10
2019,11,05,02,56,5.10
2019,11,05,02,57,5.10
2019,11,05,02,58,5.10
2019,11,05,02,59,5.10
2019,11,05,03,00,5.10
2019,11,05,03,01,5.10
2019,11,05,03,02,5.10
2019,11,05,03,03,5.10
2019,11,05,03,04,5.10
2019,11,05,03,05,5.00
2019,11,05,03,06,5.00
2019,11,05,03,07,5.00
2019,11,05,03,08,5.00
2019,11,05,03,09,4.90
2019,11,05,03,10,4.90
2019,11,05,03,11,4.90
2019,11,05,03,12,4.90
2019,11,05,03,13,4.90
2019,11,05,03,14,4.90
2019,11,05,03,15,4.90
2019,11,05,03,16,4.90
2019,11,05,03,17,5.00
2019,11,05,03,18,5.00
2019,11,05,03,19,5.00
2019,11,05,03,20,5.00
2019,11,05,03,21,5.00
2019,11,05,03,22,5.10
2019,11,05,03,23,5.10
2019,11,05,03,24,5.10
2019,11,05,03,25,5.10
2019,11,05,03,26,5.10
2019,11,05,03,27,5.20
2019,11,05,03,28,5.20
2019,11,05,03,29,5.20
2019,11,05,03,30,5.20
2019,11,05,03,31,5.20
2019,11,05,03,32,5.20
2019,11,05,03,33,5.20
2019,11,05,03,34,5.20
2019,11,05,03,35,5.10
2019,11,05,03,36,5.10
2019,11,05,03,37,5.10
2019,11,05,03,38,5.10
2019,11,05,03,39,5.10
2019,11,05,03,40,5.10
2019,11,05,03,41,5.10
2019,11,05,03,42,5.10
2019,11,05,03,43,5.10
2019,11,05,03,44,5.00
2019,11,05,03,45,5.00
2019,11,05,03,46,5.00
2019,11,05,03,47,5.00
2019,11,05,03,48,4.90
2019,11,05,03,49,4.90
2019,11,05,03,50,4.90
2019,11,05,03,51,4.90
2019,11,05,03,52,4.90
2019,11,05,03,53,4.90
2019,11,05,03,54,4.90
2019,11,05,03,55,4.90
2019,11,05,03,56,4.90
2019,11,05,03,57,4.90
2019,11,05,03,58,4.90
2019,11,05,03,59,4.90
2019,11,05,04,00,4.90
2019,11,05,04,01,4.90
2019,11,05,04,02,4.90
2019,11,05,04,03,4.90
2019,11,05,04,04,4.90
2019,11,05,04,05,4.90
2019,11,05,04,06,4.90
2019,11,05,04,07,4.90
2019,11,05,04,08,4.90
2019,11,05,04,09,4.80
2019,11,05,04,10,4.80
2019,11,05,04,11,4.80
2019,11,05,04,12,4.80
2019,11,05,04,13,4.70
2019,11,05,04,14,4.70
2019,11,05,04,15,4.70
2019,11,05,04,16,4.70
2019,11,05,04,17,4.70
2019,11,05,04,18,4.70
2019,11,05,04,19,4.70
2019,11,05,04,20,4.70
2019,11,05,04,21,4.80
2019,11,05,04,22,4.80
2019,11,05,04,23,4.80
2019,11,05,04,24,4.80
2019,11,05,04,25,4.80
2019,11,05,04,26,4.70
2019,11,05,04,27,4.70
2019,11,05,04,28,4.70
2019,11,05,04,29,4.60
2019,11,05,04,30,4.60
2019,11,05,04,31,4.50
2019,11,05,04,32,4.50
2019,11,05,04,33,4.40
2019,11,05,04,34,4.40
2019,11,05,04,35,4.30
2019,11,05,04,36,4.30
2019,11,05,04,37,4.30
2019,11,05,04,38,4.30
2019,11,05,04,39,4.30
2019,11,05,04,40,4.20
2019,11,05,04,41,4.20
2019,11,05,04,42,4.30
2019,11,05,04,43,4.30
2019,11,05,04,44,4.30
2019,11,05,04,45,4.30
2019,11,05,04,46,4.30
2019,11,05,04,47,4.30
2019,11,05,04,48,4.30
2019,11,05,04,49,4.20
2019,11,05,04,50,4.20
2019,11,05,04,51,4.20
2019,11,05,04,52,4.20
2019,11,05,04,53,4.20
2019,11,05,04,54,4.10
2019,11,05,04,55,4.10
2019,11,05,04,56,4.10
2019,11,05,04,57,4.10
2019,11,05,04,58,4.10
2019,11,05,04,59,4.10
2019,11,05,05,00,4.10
2019,11,05,05,01,4.10
2019,11,05,05,02,4.10
2019,11,05,05,03,4.20
2019,11,05,05,04,4.20
2019,11,05,05,05,4.20
2019,11,05,05,06,4.20
2019,11,05,05,07,4.20
2019,11,05,05,08,4.20
2019,11,05,05,09,4.20
2019,11,05,05,10,4.20
2019,11,05,05,11,4.10
2019,11,05,05,12,4.10
2019,11,05,05,13,4.20
2019,11,05,05,14,4.20
2019,11,05,05,15,4.20
2019,11,05,05,16,4.20
2019,11,05,05,17,4.20
2019,11,05,05,18,4.20
2019,11,05,05,19,4.20
2019,11,05,05,20,4.20
2019,11,05,05,21,4.10
2019,11,05,05,22,4.10
2019,11,05,05,23,4.10
2019,11,05,05,24,4.10
2019,11,05,05,25,4.00
2019,11,05,05,26,4.00
2019,11,05,05,27,4.00
2019,11,05,05,28,4.00
2019,11,05,05,29,3.90
2019,11,05,05,30,3.90
2019,11,05,05,31,3.90
2019,11,05,05,32,3.90
2019,11,05,05,33,3.90
2019,11,05,05,34,3.90
2019,11,05,05,35,3.90
2019,11,05,05,36,3.90
2019,11,05,05,37,3.90
2019,11,05,05,38,3.90
2019,11,05,05,39,3.90
2019,11,05,05,40,3.90
2019,11,05,05,41,3.90
2019,11,05,05,42,3.90
2019,11,05,05,43,3.90
2019,11,05,05,44,3.90
2019,11,05,05,45,3.80
2019,11,05,05,46,3.80
2019,11,05,05,47,3.90
2019,11,05,05,48,3.90
2019,11,05,05,49,3.90
2019,11,05,05,50,3.90
2019,11,05,05,51,3.90
2019,11,05,05,52,3.90
2019,11,05,05,53,3.90
2019,11,05,05,54,3.90
2019,11,05,05,55,3.90
2019,11,05,05,56,3.90
2019,11,05,05,57,3.80
2019,11,05,05,58,3.80
2019,11,05,05,59,3.80
2019,11,05,06,00,3.80
2019,11,05,06,01,3.80
2019,11,05,06,02,3.80
2019,11,05,06,03,3.80
2019,11,05,06,04,3.80
2019,11,05,06,05,3.80
2019,11,05,06,06,3.80
2019,11,05,06,07,3.80
2019,11,05,06,08,3.80
2019,11,05,06,09,3.80
2019,11,05,06,10,3.80
2019,11,05,06,11,3.80
2019,11,05,06,12,3.80
2019,11,05,06,13,3.80
2019,11,05,06,14,3.80
2019,11,05,06,15,3.80
2019,11,05,06,16,3.80
2019,11,05,06,17,3.80
2019,11,05,06,18,3.80
2019,11,05,06,19,3.80
2019,11,05,06,20,3.80
2019,11,05,06,21,3.80
2019,11,05,06,22,3.80
2019,11,05,06,23,3.80
2019,11,05,06,24,3.80
2019,11,05,06,25,3.80
2019,11,05,06,26,3.80
2019,11,05,06,27,3.80
2019,11,05,06,28,3.80
2019,11,05,06,29,3.80
2019,11,05,06,30,3.80
2019,11,05,06,31,3.80
2019,11,05,06,32,3.80
2019,11,05,06,33,3.80
2019,11,05,06,34,3.80
2019,11,05,06,35,3.80
2019,11,05,06,36,3.80
2019,11,05,06,37,3.80
2019,11,05,06,38,3.80
2019,11,05,06,39,3.80
2019,11,05,06,40,3.80
2019,11,05,06,41,3.80
2019,11,05,06,42,3.70
2019,11,05,06,43,3.70
2019,11,05,06,44,3.70
2019,11,05,06,45,3.70
2019,11,05,06,46,3.70
2019,11,05,06,47,3.70
2019,11,05,06,48,3.70
2019,11,05,06,49,3.70
2019,11,05,06,50,3.70
2019,11,05,06,51,3.70
2019,11,05,06,52,3.70
2019,11,05,06,53,3.70
2019,11,05,06,54,3.70
2019,11,05,06,55,3.60
2019,11,05,06,56,3.60
2019,11,05,06,57,3.60
2019,11,05,06,58,3.60
2019,11,05,06,59,3.60
2019,11,05,07,00,3.60
2019,11,05,07,01,3.60
2019,11,05,07,02,3.60
2019,11,05,07,03,3.60
2019,11,05,07,04,3.60
2019,11,05,07,05,3.50
2019,11,05,07,06,3.60
2019,11,05,07,07,3.60
2019,11,05,07,08,3.50
2019,11,05,07,09,3.50
2019,11,05,07,10,3.50
2019,11,05,07,11,3.50
2019,11,05,07,12,3.50
2019,11,05,07,13,3.50
2019,11,05,07,14,3.50
2019,11,05,07,15,3.50
2019,11,05,07,16,3.50
2019,11,05,07,17,3.50
2019,11,05,07,18,3.50
2019,11,05,07,19,3.50
2019,11,05,07,20,3.40
2019,11,05,07,21,3.40
2019,11,05,07,22,3.40
2019,11,05,07,23,3.40
2019,11,05,07,24,3.40
2019,11,05,07,25,3.40
2019,11,05,07,26,3.40
2019,11,05,07,27,3.40
2019,11,05,07,28,3.40
2019,11,05,07,29,3.40
2019,11,05,07,30,3.40
2019,11,05,07,31,3.40
2019,11,05,07,32,3.40
2019,11,05,07,33,3.40
2019,11,05,07,34,3.40
2019,11,05,07,35,3.40
2019,11,05,07,36,3.40
2019,11,05,07,37,3.40
2019,11,05,07,38,3.40
2019,11,05,07,39,3.40
2019,11,05,07,40,3.40
2019,11,05,07,41,3.40
2019,11,05,07,42,3.30
2019,11,05,07,43,3.40
2019,11,05,07,44,3.40
2019,11,05,07,45,3.40
2019,11,05,07,46,3.40
2019,11,05,07,47,3.40
2019,11,05,07,48,3.40
2019,11,05,07,49,3.40
2019,11,05,07,50,3.40
2019,11,05,07,51,3.40
2019,11,05,07,52,3.40
2019,11,05,07,53,3.40
2019,11,05,07,54,3.40
2019,11,05,07,55,3.40
2019,11,05,07,56,3.40
2019,11,05,07,57,3.40
2019,11,05,07,58,3.40
2019,11,05,07,59,3.40
2019,11,05,08,00,3.40
2019,11,05,08,01,3.50
2019,11,05,08,02,3.50
2019,11,05,08,03,3.50
2019,11,05,08,04,3.50
2019,11,05,08,05,3.50
2019,11,05,08,06,3.50
2019,11,05,08,07,3.60
2019,11,05,08,08,3.60
2019,11,05,08,09,3.60
2019,11,05,08,10,3.60
2019,11,05,08,11,3.60
2019,11,05,08,12,3.60
2019,11,05,08,13,3.60
2019,11,05,08,14,3.70
2019,11,05,08,15,3.70
2019,11,05,08,16,3.70
2019,11,05,08,17,3.70
2019,11,05,08,18,3.80
2019,11,05,08,19,3.80
2019,11,05,08,20,3.80
2019,11,05,08,21,3.80
2019,11,05,08,22,3.90
2019,11,05,08,23,3.90
2019,11,05,08,24,3.90
2019,11,05,08,25,4.00
2019,11,05,08,26,4.00
2019,11,05,08,27,4.00
2019,11,05,08,28,4.10
2019,11,05,08,29,4.10
2019,11,05,08,30,4.10
2019,11,05,08,31,4.20
2019,11,05,08,32,4.20
2019,11,05,08,33,4.30
2019,11,05,08,34,4.30
2019,11,05,08,35,4.30
2019,11,05,08,36,4.30
2019,11,05,08,37,4.40
2019,11,05,08,38,4.40
2019,11,05,08,39,4.50
2019,11,05,08,40,4.60
2019,11,05,08,41,4.60
2019,11,05,08,42,4.60
2019,11,05,08,43,4.50
2019,11,05,08,44,4.50
2019,11,05,08,45,4.50
2019,11,05,08,46,4.50
2019,11,05,08,47,4.50
2019,11,05,08,48,4.50
2019,11,05,08,49,4.50
2019,11,05,08,50,4.50
2019,11,05,08,51,4.60
2019,11,05,08,52,4.60
2019,11,05,08,53,4.60
2019,11,05,08,54,4.60
2019,11,05,08,55,4.70
2019,11,05,08,56,4.70
2019,11,05,08,57,4.70
2019,11,05,08,58,4.80
2019,11,05,08,59,4.80
2019,11,05,09,00,4.80
2019,11,05,09,01,4.80
2019,11,05,09,02,4.80
2019,11,05,09,03,4.80
2019,11,05,09,04,4.80
2019,11,05,09,05,4.80
2019,11,05,09,06,4.90
2019,11,05,09,07,4.90
2019,11,05,09,08,4.90
2019,11,05,09,09,4.90
2019,11,05,09,10,4.90
2019,11,05,09,11,5.00
2019,11,05,09,12,5.00
2019,11,05,09,13,5.10
2019,11,05,09,14,5.10
2019,11,05,09,15,5.10
2019,11,05,09,16,5.10
2019,11,05,09,17,5.20
2019,11,05,09,18,5.20
2019,11,05,09,19,5.30
2019,11,05,09,20,5.30
2019,11,05,09,21,5.40
2019,11,05,09,22,5.40
2019,11,05,09,23,5.50
2019,11,05,09,24,5.60
2019,11,05,09,25,5.60
2019,11,05,09,26,5.60
2019,11,05,09,27,5.60
2019,11,05,09,28,5.60
2019,11,05,09,29,5.60
2019,11,05,09,30,5.60
2019,11,05,09,31,5.60
2019,11,05,09,32,5.60
2019,11,05,09,33,5.50
2019,11,05,09,34,5.60
2019,11,05,09,35,5.60
2019,11,05,09,36,5.60
2019,11,05,09,37,5.70
2019,11,05,09,38,5.80
2019,11,05,09,39,5.90
2019,11,05,09,40,6.00
2019,11,05,09,41,6.10
2019,11,05,09,42,6.20
2019,11,05,09,43,6.40
2019,11,05,09,44,6.50
2019,11,05,09,45,6.60
2019,11,05,09,46,6.80
2019,11,05,09,47,6.90
2019,11,05,09,48,7.00
2019,11,05,09,49,7.10
2019,11,05,09,50,7.10
2019,11,05,09,51,7.20
2019,11,05,09,52,7.30
2019,11,05,09,53,7.30
2019,11,05,09,54,7.30
2019,11,05,09,55,7.30
2019,11,05,09,56,7.30
2019,11,05,09,57,7.30
2019,11,05,09,58,7.20
2019,11,05,09,59,7.20
2019,11,05,10,00,7.20
2019,11,05,10,01,7.10
2019,11,05,10,02,7.10
2019,11,05,10,03,7.10
2019,11,05,10,04,7.10
2019,11,05,10,05,7.10
2019,11,05,10,06,7.10
2019,11,05,10,07,7.20
2019,11,05,10,08,7.20
2019,11,05,10,09,7.20
2019,11,05,10,10,7.20
2019,11,05,10,11,7.20
2019,11,05,10,12,7.20
2019,11,05,10,13,7.20
2019,11,05,10,14,7.20
2019,11,05,10,15,7.20
2019,11,05,10,16,7.10
2019,11,05,10,17,7.00
2019,11,05,10,18,7.00
2019,11,05,10,19,7.00
2019,11,05,10,20,7.00
2019,11,05,10,21,7.00
2019,11,05,10,22,7.10
2019,11,05,10,23,7.10
2019,11,05,10,24,7.10
2019,11,05,10,25,7.20
2019,11,05,10,26,7.20
2019,11,05,10,27,7.20
2019,11,05,10,28,7.30
2019,11,05,10,29,7.30
2019,11,05,10,30,7.30
2019,11,05,10,31,7.30
2019,11,05,10,32,7.30
2019,11,05,10,33,7.30
2019,11,05,10,34,7.30
2019,11,05,10,35,7.30
2019,11,05,10,36,7.30
2019,11,05,10,37,7.30
2019,11,05,10,38,7.20
2019,11,05,10,39,7.20
2019,11,05,10,40,7.20
2019,11,05,10,41,7.20
2019,11,05,10,42,7.10
2019,11,05,10,43,7.10
2019,11,05,10,44,7.10
2019,11,05,10,45,7.10
2019,11,05,10,46,7.10
2019,11,05,10,47,7.10
2019,11,05,10,48,7.10
2019,11,05,10,49,7.10
2019,11,05,10,50,7.10
2019,11,05,10,51,7.10
2019,11,05,10,52,7.10
2019,11,05,10,53,7.10
2019,11,05,10,54,7.10
2019,11,05,10,55,7.10
2019,11,05,10,56,7.10
2019,11,05,10,57,7.10
2019,11,05,10,58,7.10
2019,11,05,10,59,7.20
2019,11,05,11,00,7.20
2019,11,05,11,01,7.20
2019,11,05,11,02,7.20
2019,11,05,11,03,7.20
2019,11,05,11,04,7.20
2019,11,05,11,05,7.20
2019,11,05,11,06,7.20
2019,11,05,11,07,7.20
2019,11,05,11,08,7.20
2019,11,05,11,09,7.20
2019,11,05,11,10,7.20
2019,11,05,11,11,7.20
2019,11,05,11,12,7.20
2019,11,05,11,13,7.20
2019,11,05,11,14,7.20
2019,11,05,11,15,7.20
2019,11,05,11,16,7.20
2019,11,05,11,17,7.30
2019,11,05,11,18,7.30
2019,11,05,11,19,7.40
2019,11,05,11,20,7.40
2019,11,05,11,21,7.40
2019,11,05,11,22,7.40
2019,11,05,11,23,7.40
2019,11,05,11,24,7.50
2019,11,05,11,25,7.50
2019,11,05,11,26,7.50
2019,11,05,11,27,7.60
2019,11,05,11,28,7.60
2019,11,05,11,29,7.60
2019,11,05,11,30,7.60
2019,11,05,11,31,7.70
2019,11,05,11,32,7.80
2019,11,05,11,33,7.90
2019,11,05,11,34,7.90
2019,11,05,11,35,8.00
2019,11,05,11,36,8.10
2019,11,05,11,37,8.20
2019,11,05,11,38,8.20
2019,11,05,11,39,8.30
2019,11,05,11,40,8.40
2019,11,05,11,41,8.50
2019,11,05,11,42,8.50
2019,11,05,11,43,8.60
2019,11,05,11,44,8.70
2019,11,05,11,45,8.70
2019,11,05,11,46,8.80
2019,11,05,11,47,8.80
2019,11,05,11,48,8.80
2019,11,05,11,49,8.90
2019,11,05,11,50,8.90
2019,11,05,11,51,9.00
2019,11,05,11,52,9.10
2019,11,05,11,53,9.10
2019,11,05,11,54,9.20
2019,11,05,11,55,9.20
2019,11,05,11,56,9.30
2019,11,05,11,57,9.40
2019,11,05,11,58,9.50
2019,11,05,11,59,9.60
2019,11,05,12,00,9.70
2019,11,05,12,01,9.70
2019,11,05,12,02,9.70
2019,11,05,12,03,9.70
2019,11,05,12,04,9.60
2019,11,05,12,05,9.60
2019,11,05,12,06,9.60
2019,11,05,12,07,9.60
2019,11,05,12,08,9.60
2019,11,05,12,09,9.60
2019,11,05,12,10,9.60
2019,11,05,12,11,9.70
2019,11,05,12,12,9.70
2019,11,05,12,13,9.70
2019,11,05,12,14,9.80
2019,11,05,12,15,9.80
2019,11,05,12,16,9.80
2019,11,05,12,17,9.90
2019,11,05,12,18,9.90
2019,11,05,12,19,9.90
2019,11,05,12,20,10.00
2019,11,05,12,21,10.00
2019,11,05,12,22,10.00
2019,11,05,12,23,10.00
2019,11,05,12,24,10.10
2019,11,05,12,25,10.10
2019,11,05,12,26,10.10
2019,11,05,12,27,10.10
2019,11,05,12,28,10.10
2019,11,05,12,29,10.10
2019,11,05,12,30,10.20
2019,11,05,12,31,10.20
2019,11,05,12,32,10.30
2019,11,05,12,33,10.40
2019,11,05,12,34,10.40
2019,11,05,12,35,10.40
2019,11,05,12,36,10.50
2019,11,05,12,37,10.60
2019,11,05,12,38,10.70
2019,11,05,12,39,10.80
2019,11,05,12,40,10.80
2019,11,05,12,41,10.80
2019,11,05,12,42,10.90
2019,11,05,12,43,11.00
2019,11,05,12,44,11.00
2019,11,05,12,45,11.20
2019,11,05,12,46,11.30
2019,11,05,12,47,11.30
2019,11,05,12,48,11.40
2019,11,05,12,49,11.50
2019,11,05,12,50,11.60
2019,11,05,12,51,11.60
2019,11,05,12,52,11.70
2019,11,05,12,53,11.70
2019,11,05,12,54,11.60
2019,11,05,12,55,11.50
2019,11,05,12,56,11.50
2019,11,05,12,57,11.40
2019,11,05,12,58,11.40
2019,11,05,12,59,11.40
2019,11,05,13,00,11.40
2019,11,05,13,01,11.40
2019,11,05,13,02,11.50
2019,11,05,13,03,11.50
2019,11,05,13,04,11.50
2019,11,05,13,05,11.40
2019,11,05,13,06,11.40
2019,11,05,13,07,11.30
2019,11,05,13,08,11.30
2019,11,05,13,09,11.30
2019,11,05,13,10,11.30
2019,11,05,13,11,11.30
2019,11,05,13,12,11.30
2019,11,05,13,13,11.40
2019,11,05,13,14,11.40
2019,11,05,13,15,11.50
2019,11,05,13,16,11.60
2019,11,05,13,17,11.70
2019,11,05,13,18,11.70
2019,11,05,13,19,11.80
2019,11,05,13,20,11.90
2019,11,05,13,21,11.90
2019,11,05,13,22,12.00
2019,11,05,13,23,12.00
2019,11,05,13,24,12.00
2019,11,05,13,25,12.00
2019,11,05,13,26,12.00
2019,11,05,13,27,12.00
2019,11,05,13,28,12.00
2019,11,05,13,29,12.00
2019,11,05,13,30,12.00
2019,11,05,13,31,11.90
2019,11,05,13,32,11.90
2019,11,05,13,33,12.00
2019,11,05,13,34,12.00
2019,11,05,13,35,12.00
2019,11,05,13,36,12.00
2019,11,05,13,37,11.90
2019,11,05,13,38,11.80
2019,11,05,13,39,11.80
2019,11,05,13,40,11.70
2019,11,05,13,41,11.70
2019,11,05,13,42,11.80
2019,11,05,13,43,11.80
2019,11,05,13,44,11.90
2019,11,05,13,45,12.00
2019,11,05,13,46,12.00
2019,11,05,13,47,12.20
2019,11,05,13,48,12.40
2019,11,05,13,49,12.50
2019,11,05,13,50,12.60
2019,11,05,13,51,12.70
2019,11,05,13,52,12.80
2019,11,05,13,53,12.80
2019,11,05,13,54,12.80
2019,11,05,13,55,12.80
2019,11,05,13,56,12.80
2019,11,05,13,57,12.80
2019,11,05,13,58,12.80
2019,11,05,13,59,12.90
2019,11,05,14,00,12.90
2019,11,05,14,01,12.90
2019,11,05,14,02,12.90
2019,11,05,14,03,12.90
2019,11,05,14,04,12.90
2019,11,05,14,05,12.80
2019,11,05,14,06,12.80
2019,11,05,14,07,12.90
2019,11,05,14,08,12.90
2019,11,05,14,09,13.00
2019,11,05,14,10,13.00
2019,11,05,14,11,13.00
2019,11,05,14,12,13.00
2019,11,05,14,13,12.90
2019,11,05,14,14,12.90
2019,11,05,14,15,12.90
2019,11,05,14,16,12.80
2019,11,05,14,17,12.80
2019,11,05,14,18,12.70
2019,11,05,14,19,12.60
2019,11,05,14,20,12.50
2019,11,05,14,21,12.40
2019,11,05,14,22,12.30
2019,11,05,14,23,12.30
2019,11,05,14,24,12.20
2019,11,05,14,25,12.20
2019,11,05,14,26,12.20
2019,11,05,14,27,12.20
2019,11,05,14,28,12.20
2019,11,05,14,29,12.20
2019,11,05,14,30,12.20
2019,11,05,14,31,12.20
2019,11,05,14,32,12.20
2019,11,05,14,33,12.20
2019,11,05,14,34,12.30
2019,11,05,14,35,12.30
2019,11,05,14,36,12.30
2019,11,05,14,37,12.40
2019,11,05,14,38,12.40
2019,11,05,14,39,12.50
2019,11,05,14,40,12.50
2019,11,05,14,41,12.60
2019,11,05,14,42,12.60
2019,11,05,14,43,12.60
2019,11,05,14,44,12.70
2019,11,05,14,45,12.70
2019,11,05,14,46,12.80
2019,11,05,14,47,12.80
2019,11,05,14,48,12.90
2019,11,05,14,49,12.90
2019,11,05,14,50,12.90
2019,11,05,14,51,12.90
2019,11,05,14,52,12.90
2019,11,05,14,53,12.80
2019,11,05,14,54,12.80
2019,11,05,14,55,12.80
2019,11,05,14,56,12.80
2019,11,05,14,57,12.80
2019,11,05,14,58,12.80
2019,11,05,14,59,12.80
2019,11,05,15,00,12.70
2019,11,05,15,01,12.70
2019,11,05,15,02,12.60
2019,11,05,15,03,12.60
2019,11,05,15,04,12.60
2019,11,05,15,05,12.60
2019,11,05,15,06,12.60
2019,11,05,15,07,12.50
2019,11,05,15,08,12.50
2019,11,05,15,09,12.40
2019,11,05,15,10,12.30
2019,11,05,15,11,12.30
2019,11,05,15,12,12.20
2019,11,05,15,13,12.10
2019,11,05,15,14,12.00
2019,11,05,15,15,11.90
2019,11,05,15,16,11.80
2019,11,05,15,17,11.80
2019,11,05,15,18,11.70
2019,11,05,15,19,11.70
2019,11,05,15,20,11.60
2019,11,05,15,21,11.50
2019,11,05,15,22,11.50
2019,11,05,15,23,11.40
2019,11,05,15,24,11.30
2019,11,05,15,25,11.30
2019,11,05,15,26,11.20
2019,11,05,15,27,11.20
2019,11,05,15,28,11.10
2019,11,05,15,29,11.00
2019,11,05,15,30,10.90
2019,11,05,15,31,10.80
2019,11,05,15,32,10.70
2019,11,05,15,33,10.60
2019,11,05,15,34,10.50
2019,11,05,15,35,10.40
2019,11,05,15,36,10.30
2019,11,05,15,37,10.30
2019,11,05,15,38,10.20
2019,11,05,15,39,10.10
2019,11,05,15,40,10.10
2019,11,05,15,41,10.00
2019,11,05,15,42,10.00
2019,11,05,15,43,9.90
2019,11,05,15,44,9.80
2019,11,05,15,45,9.80
2019,11,05,15,46,9.70
2019,11,05,15,47,9.70
2019,11,05,15,48,9.70
2019,11,05,15,49,9.60
2019,11,05,15,50,9.60
2019,11,05,15,51,9.60
2019,11,05,15,52,9.50
2019,11,05,15,53,9.50
2019,11,05,15,54,9.40
2019,11,05,15,55,9.40
2019,11,05,15,56,9.40
2019,11,05,15,57,9.30
2019,11,05,15,58,9.30
2019,11,05,15,59,9.30
2019,11,05,16,00,9.20
2019,11,05,16,01,9.20
2019,11,05,16,02,9.20
2019,11,05,16,03,9.10
2019,11,05,16,04,9.10
2019,11,05,16,05,9.10
2019,11,05,16,06,9.00
2019,11,05,16,07,9.00
2019,11,05,16,08,8.90
2019,11,05,16,09,8.90
2019,11,05,16,10,8.80
2019,11,05,16,11,8.80
2019,11,05,16,12,8.80
2019,11,05,16,13,8.70
2019,11,05,16,14,8.70
2019,11,05,16,15,8.60
2019,11,05,16,16,8.50
2019,11,05,16,17,8.50
2019,11,05,16,18,8.40
2019,11,05,16,19,8.40
2019,11,05,16,20,8.30
2019,11,05,16,21,8.30
2019,11,05,16,22,8.20
2019,11,05,16,23,8.20
2019,11,05,16,24,8.10
2019,11,05,16,25,8.10
2019,11,05,16,26,8.00
2019,11,05,16,27,8.00
2019,11,05,16,28,8.00
2019,11,05,16,29,7.90
2019,11,05,16,30,7.90
2019,11,05,16,31,7.90
2019,11,05,16,32,7.80
2019,11,05,16,33,7.80
2019,11,05,16,34,7.80
2019,11,05,16,35,7.80
2019,11,05,16,36,7.70
2019,11,05,16,37,7.70
2019,11,05,16,38,7.70
2019,11,05,16,39,7.70
2019,11,05,16,40,7.70
2019,11,05,16,41,7.60
2019,11,05,16,42,7.60
2019,11,05,16,43,7.60
2019,11,05,16,44,7.60
2019,11,05,16,45,7.60
2019,11,05,16,46,7.60
2019,11,05,16,47,7.50
2019,11,05,16,48,7.50
2019,11,05,16,49,7.50
2019,11,05,16,50,7.40
2019,11,05,16,51,7.40
2019,11,05,16,52,7.40
2019,11,05,16,53,7.40
2019,11,05,16,54,7.40
2019,11,05,16,55,7.40
2019,11,05,16,56,7.30
2019,11,05,16,57,7.30
2019,11,05,16,58,7.30
2019,11,05,16,59,7.20
2019,11,05,17,00,7.20
2019,11,05,17,01,7.20
2019,11,05,17,02,7.20
2019,11,05,17,03,7.10
2019,11,05,17,04,7.10
2019,11,05,17,05,7.10
2019,11,05,17,06,7.10
2019,11,05,17,07,7.10
2019,11,05,17,08,7.00
2019,11,05,17,09,7.00
2019,11,05,17,10,7.00
2019,11,05,17,11,6.90
2019,11,05,17,12,6.90
2019,11,05,17,13,6.90
2019,11,05,17,14,6.90
2019,11,05,17,15,6.90
2019,11,05,17,16,6.90
2019,11,05,17,17,6.90
2019,11,05,17,18,6.90
2019,11,05,17,19,6.80
2019,11,05,17,20,6.80
2019,11,05,17,21,6.80
2019,11,05,17,22,6.70
2019,11,05,17,23,6.70
2019,11,05,17,24,6.70
2019,11,05,17,25,6.70
2019,11,05,17,26,6.70
2019,11,05,17,27,6.70
2019,11,05,17,28,6.70
2019,11,05,17,29,6.60
2019,11,05,17,30,6.60
2019,11,05,17,31,6.60
2019,11,05,17,32,6.60
2019,11,05,17,33,6.60
2019,11,05,17,34,6.60
2019,11,05,17,35,6.60
2019,11,05,17,36,6.50
2019,11,05,17,37,6.50
2019,11,05,17,38,6.50
2019,11,05,17,39,6.40
2019,11,05,17,40,6.40
2019,11,05,17,41,6.40
2019,11,05,17,42,6.40
2019,11,05,17,43,6.40
2019,11,05,17,44,6.40
2019,11,05,17,45,6.30
2019,11,05,17,46,6.30
2019,11,05,17,47,6.30
2019,11,05,17,48,6.20
2019,11,05,17,49,6.20
2019,11,05,17,50,6.20
2019,11,05,17,51,6.20
2019,11,05,17,52,6.20
2019,11,05,17,53,6.10
2019,11,05,17,54,6.10
2019,11,05,17,55,6.10
2019,11,05,17,56,6.10
2019,11,05,17,57,6.10